Hourly Data Report for October 09, 2014

All times are specified in Local Standard Time (LST). Add 1 hour to adjust for Daylight Saving Time where and when it is observed.

OTTAWA INTL A
ONTARIO

45°19'00.000" N
75°40'00.000" W
114.90 m
6106001
71628
YOW

Download Data

Hourly Data (October 2014)
Hourly Data Report for October 9, 2014
Temp Definition
°C
Dew Point Temp Definition
°C
Rel Hum Definition
%
Wind Dir Definition
10's deg

Wind Spd Definition
km/h
Visibility Definition
km
Stn Press Definition
kPa
Hmdx Definition


Wind Chill Definition


Weather Definition


TIME
00:00 Legend Double Dagger 6.2 3.2 81 25 18 24.1 99.50     LegendNANA
01:00 Legend Double Dagger 5.9 2.4 78 26 18 24.1 99.56     Mainly Clear
02:00 Legend Double Dagger 4.0 1.6 84 25 11 24.1 99.58     LegendNANA
03:00 Legend Double Dagger 3.6 1.8 88 23 7 24.1 99.61     LegendNANA
04:00 Legend Double Dagger 3.7 2.1 89 23 12 24.1 99.63     Mainly Clear
05:00 Legend Double Dagger 3.0 2.1 94 23 10 24.1 99.66     LegendNANA
06:00 Legend Double Dagger 3.9 2.9 93 21 13 24.1 99.69     LegendNANA
07:00 Legend Double Dagger 4.5 3.2 91 22 16 24.1 99.70     Mainly Clear
08:00 Legend Double Dagger 6.1 3.6 84 22 18 24.1 99.69     LegendNANA
09:00 Legend Double Dagger 6.5 3.7 82 22 18 24.1 99.65     Rain Showers
10:00 Legend Double Dagger 7.3 4.1 80 22 18 24.1 99.60     Rain Showers
11:00 Legend Double Dagger 7.7 3.9 77 23 23 24.1 99.60     Rain Showers
12:00 Legend Double Dagger 9.7 5.3 74 23 21 24.1 99.57     LegendNANA
13:00 Legend Double Dagger 6.7 4.4 85 23 19 24.1 99.58     Rain Showers
14:00 Legend Double Dagger 8.3 5.4 82 23 22 24.1 99.61     LegendNANA
15:00 Legend Double Dagger 10.0 4.2 67 24 25 24.1 99.61     LegendNANA
16:00 Legend Double Dagger 8.3 5.3 81 25 17 24.1 99.67     Clear
17:00 Legend Double Dagger 8.3 4.7 78 29 7 24.1 99.74     LegendNANA
18:00 Legend Double Dagger 7.6 3.3 74 24 9 24.1 99.81     LegendNANA
19:00 Legend Double Dagger 6.3 2.8 78 22 9 24.1 99.87     Mostly Cloudy
20:00 Legend Double Dagger 5.3 2.3 81 27 13 24.1 99.96     LegendNANA
21:00 Legend Double Dagger 3.9 1.6 85 25 11 24.1 99.99     LegendNANA
22:00 Legend Double Dagger 3.7 1.4 85 24 8 24.1 100.01     Mainly Clear
23:00 Legend Double Dagger 3.4 1.1 85 25 11 24.1 100.07     LegendNANA

Notes on Data Quality.

Legend

  • E = Estimated
  • M = Missing
  • NA = Not Available
  • ‡ = Partner data that is not subject to review by the National Climate Archives
Date modified: